Location: Huntsville
(34.7300°N, 86.5860°W)
Time: 10:06:19
(UTC-05:00)

Daily predictions for brighter satellites

Satellite Brightness Start Highest point End
(mag) Time Altitude Azimuth Time Altitude Azimuth Time Altitude Azimuth
ATLAS 3B R/B 3.7 20:10:24 10° SSE 20:16:51 30° ESE 20:23:15 10° NE
Abrixas rocket 2.6 20:16:44 10° WNW 20:20:07 61° SW 20:23:30 10° SE
SL-16 R/B 3.7 20:15:27 10° SW 20:20:49 44° WNW 20:26:12 10° N
Cosmos 2058 Rocket 3.0 20:17:39 10° N 20:22:01 72° E 20:26:21 10° SSE
Okean 2 3.5 20:21:22 10° S 20:25:31 87° W 20:29:44 10° N
Cosmos 1302 Rocket 4.1 20:23:07 10° NNW 20:28:22 70° ENE 20:33:35 10° SSE
Tsikada Rocket 4.5 20:22:30 10° SSE 20:28:29 43° E 20:34:26 10° NNE
CZ-2D R/B 3.5 20:28:44 10° S 20:32:37 76° W 20:36:33 10° NNW
CZ-2C R/B 1.4 20:33:07 11° SE 20:35:02 30° ENE 20:37:05 10° N
SPOT 5 4.3 20:32:41 10° ESE 20:35:32 17° ENE 20:38:22 10° NNE
Aureole 2 Rocket 4.4 20:32:02 10° SW 20:35:37 36° WNW 20:38:56 10° N
Lacrosse 4 Rocket 2.4 20:37:04 10° SSE 20:40:19 24° ESE 20:43:35 10° NE
H-2A R/B 2.7 20:36:29 10° SE 20:40:27 39° ENE 20:44:31 10° N
Timation 1 Rocket 4.4 20:34:36 10° NNW 20:40:37 76° ENE 20:46:36 10° SSE
YAOGAN 11 4.0 20:36:38 10° SSE 20:40:58 77° ENE 20:45:16 10° N
Cosmos 1743 4.3 20:37:48 10° NNW 20:41:19 35° W 20:44:49 10° SSW
ERS-1 Rocket 3.2 20:37:50 10° SSE 20:42:43 56° ENE 20:47:38 10° N
Cosmos 2285 Rocket 4.3 20:36:30 10° NNW 20:42:47 69° WSW 20:49:06 10° S
Cosmos 1464 Rocket 4.0 20:38:48 10° N 20:44:59 89° W 20:51:11 10° S
deb Chang Zheng 4 3.6 20:41:43 10° NNE 20:46:05 63° E 20:50:22 10° S
Cosmos 2228 3.1 20:42:56 10° N 20:47:22 89° W 20:51:46 10° S
GEOS 3 Rocket 4.0 20:42:38 12° SE 20:47:25 54° NE 20:52:30 10° NNW
Cosmos 1626 Rocket 3.5 20:43:06 10° S 20:47:32 79° E 20:51:57 10° N
CZ-4 DEB 3.6 20:46:00 10° S 20:49:08 51° W 20:52:18 10° NNW
Cosmos 1603 4.1 20:44:41 10° SSW 20:50:15 67° WNW 20:55:50 10° NNE
FENGYUN 3A 4.0 20:45:11 10° S 20:50:31 69° WSW 20:55:54 10° NNW
Meteor 1-15 Rocket 4.3 20:47:01 10° N 20:52:39 81° W 20:58:20 10° S
Atlas Centaur 2 2.9 20:48:41 10° WSW 20:55:25 63° S 21:03:24 10° E
Envisat 3.6 20:54:15 15° SE 20:58:05 41° ENE 21:02:49 10° N
Cosmos 407 Rocket 4.2 20:55:48 10° SSE 21:00:27 33° E 21:05:05 10° NE
Cosmos 1943 Rocket 4.2 21:03:20 10° NNE 21:05:54 13° NE 21:08:29 10° E
Cosmos 2034 Rocket 4.1 20:59:57 10° N 21:06:20 82° W 21:12:36 10° S
Nimbus 7 Rocket 4.3 21:02:14 10° NNE 21:08:10 74° ESE 21:14:01 10° S
Cosmos 1461 3.9 21:05:35 10° NW 21:09:31 40° WSW 21:12:47 13° S
Cosmos 1943 3.1 21:04:55 10° SSW 21:10:32 72° ESE 21:16:13 10° NNE
SJ-11-01 4.3 21:07:01 11° S 21:11:25 80° WSW 21:16:07 10° NNW
Centaur D AC-29 4.3 21:02:53 10° W 21:15:26 17° WSW 21:20:28 10° SSW
Cosmos 1939 Rocket 2.9 21:13:44 19° SSE 21:16:37 81° E 21:20:46 10° N
GRACE-1 4.2 21:16:17 10° N 21:19:08 67° W 21:20:47 22° SSW
GRACE-2 4.2 21:16:44 10° N 21:19:34 66° W 21:21:13 22° SSW
Delta 168 4.4 21:24:19 10° SW 21:26:11 17° SSW 21:26:11 17° SSW
Cosmos 1346 Rocket 2.9 21:27:05 34° SSE 21:28:23 49° E 21:32:10 10° NNE
Cosmos 1992 Rocket 3.9 21:29:55 10° NNW 21:35:09 85° ENE 21:37:50 30° SSE
SeaSat 1 2.8 21:35:39 31° ESE 21:37:41 51° ENE 21:42:27 10° NNW
ARGOS 3.9 21:36:50 28° ESE 21:38:47 38° ENE 21:43:45 10° N
Cosmos 1758 Rocket 3.6 21:40:28 40° SE 21:41:42 55° E 21:45:58 10° NNE
Meteor 1-21 4.5 21:39:59 30° SSE 21:42:32 51° E 21:48:08 10° NNE
USA 81 4.0 21:39:40 10° N 21:44:59 79° E 21:47:29 32° S
MetOp-B 4.1 21:45:19 33° SSE 21:47:50 83° ENE 21:53:13 10° N
CZ-4B R/B 3.6 21:51:06 10° N 21:56:16 80° WNW 21:59:55 20° SSW
Cosmos 2369 Rocket 2.1 21:51:26 10° NNW 21:57:07 85° WSW 21:59:14 40° SSE
Cosmos 1825 Rocket 4.3 21:54:32 17° SSW 21:57:43 50° W 22:02:03 10° N
BREEZE-M DEB (TANK) 4.3 21:56:50 10° W 21:57:38 15° WSW 21:57:38 15° WSW
Cosmos 1766 3.5 21:59:13 10° N 22:03:01 55° ENE 22:03:01 55° ENE
H-2A R/B 3.0 22:04:51 30° E 22:05:21 30° ENE 22:09:44 10° N
YAOGAN 6 2.6 22:06:29 71° SW 22:06:40 73° W 22:10:24 10° NNW
NOAA 11 4.2 22:05:45 48° SE 22:07:06 65° ENE 22:12:27 10° N
ATLAS 3B R/B 3.7 21:59:46 10° SW 22:07:16 54° NW 22:14:39 10° NNE
CZ-4 R/B 3.9 22:02:26 10° NNE 22:07:28 89° WNW 22:09:22 40° SSW
Cosmos 1140 Rocket 3.6 22:07:18 50° ESE 22:07:35 51° ESE 22:12:40 10° NNE
Milstar 3 Cent rocket 4.4 22:10:23 10° WSW 22:12:14 11° SW 22:12:55 11° SSW
SPOT 5 3.9 22:11:38 25° SW 22:13:21 33° W 22:17:17 10° NNW
SPOT 1/Viking Rocket 3.5 22:12:56 49° S 22:14:20 77° WSW 22:19:30 10° NNW
Cosmos 676 Rocket 4.4 22:10:41 18° SSW 22:14:42 63° WNW 22:19:59 10° N
Terra 2.7 22:14:41 33° ENE 22:14:43 33° ENE 22:18:59 10° N
Lacrosse 4 Rocket 3.7 22:15:42 10° WSW 22:18:55 22° WNW 22:22:11 10° N
USA 234 3.6 22:21:50 35° E 22:24:28 56° NE 22:30:51 10° NW
Cosmos 2084 4.3 22:20:53 10° NNW 22:24:37 39° NE 22:24:37 39° NE
Cosmos 1092 Rocket 4.5 22:27:08 41° E 22:27:23 41° E 22:33:12 10° NNE
ATLAS 5 CENTAUR R/B4.122:48:12ESE22:48:12ESE22:23:05SW
Cosmos 614 Rocket 4.5 22:30:46 45° ENE 22:30:46 45° ENE 22:34:56 10° NNE
Cosmos 2263 4.4 22:24:48 10° NNW 22:30:21 62° WSW 22:31:28 51° SSW
Cosmos 1805 4.5 22:27:22 10° N 22:29:59 34° NNE 22:29:59 34° NNE
SL-24 R/B 4.5 22:26:49 10° N 22:31:56 87° E 22:32:38 68° S
COSMOS 2406 3.1 22:33:42 55° SSW 22:35:02 89° WNW 22:40:48 10° NNE
Nadezhda 4 Rocket 3.9 22:34:52 60° SE 22:35:48 68° E 22:42:05 10° NNE
CZ-4C R/B 3.8 22:38:41 61° NW 22:38:41 61° NW 22:42:12 10° NNW
SL-27 R/B 4.5 22:45:17 26° NW 22:45:17 26° NW 22:47:31 10° N
Atlas Centaur 2 3.0 22:37:35 10° W 22:45:02 56° S 22:46:02 53° SSE
DMSP B5D2-2 3.9 22:40:11 10° NNE 22:45:23 81° E 22:45:23 81° E
Cosmos 1943 Rocket 2.0 22:44:41 10° NNW 22:50:16 79° WSW 22:50:26 78° SW
Cosmos-2242 3.7 22:47:48 10° NNW 22:51:34 53° WNW 22:51:34 53° WNW
USA 238 DEB 4.2 22:45:21 10° SW 22:52:20 60° NW 22:59:19 10° NNE
USA 238 4.2 22:45:27 10° SW 22:52:26 60° NW 22:59:25 10° NNE
Cosmos 1953 3.6 22:53:33 10° NNW 22:56:18 40° NW 22:56:18 40° NW
Cosmos 1656 Rocket 4.0 22:53:31 10° NNW 22:58:57 56° ENE 22:58:57 56° ENE
Cosmos 1607 4.3 23:01:39 31° SW 23:04:36 60° WNW 23:10:46 10° NNE
Cosmos 2026 Rocket 4.3 23:16:02 50° ENE 23:16:02 50° ENE 23:21:08 10° NNE
SeaSat 1 4.5 23:15:27 17° WSW 23:15:27 17° WSW 23:18:35 10° WNW
CZ-4C R/B 2.7 23:17:09 50° NE 23:17:09 50° NE 23:21:26 10° NNE
Cosmos 2208 Rocket 4.4 23:11:37 10° NNW 23:15:59 60° NW 23:15:59 60° NW
NOSS 3-2 (C) 3.5 23:27:22 69° NE 23:27:22 69° NE 23:33:06 10° NNE
Cosmos 1627 Rocket 4.5 23:27:16 72° NE 23:27:16 72° NE 23:32:50 10° N
H-2A R/B 3.7 23:45:29 24° W 23:45:29 24° W 23:48:49 10° NW
Cosmos 2344 3.9 23:46:19 50° E 23:46:19 50° E 23:53:23 10° NE
Meteor 2-5 Rocket 4.4 23:48:37 51° WNW 23:48:37 51° WNW 23:54:00 10° N
Terra 3.9 23:53:35 19° WNW 23:53:35 19° WNW 23:56:01 10° NW
